Location: *
(37.5724°S, 58.0067°E)
Time: 15:22:10
(UTC+00:00)

Lacrosse 5 - Pass Details

Date: 25 January 2021
Orbit: 715 x 724 km, 57.0° (Epoch: 03 March)

Event Time Altitude Azimuth Distance (km) Brightness Sun altitude
Exits shadow 18:50:06 34° 268° (W) 1,183 3.1 -29.8°
Maximum altitude 18:51:44 46° 222° (SW) 985 2.8 -29.9°
Drops below altitude 10° 18:56:42 10° 149° (SSE) 2,241 4.8 -30.3°
Sets 18:59:12 0° 142° (SE) 3,168 5.6 -30.5°
